Temp
72 71 72 72 71 72 72 73 72 74 75 75 74 75 74 73 73 73 74 72 73 73 72 72 71 71 71 71 71 70 69 67 66 65 64 65 63 64 66 65 65 65 65 63 61 59 56 56 59 61 62 64 64 63 66 66 66 63 63 60 64 63 61
74 71 72 72 71 72 72 71 72 73 74 75 75 74 75 74 73 74 74 73 72 73 72 72 72 72 71 70 70 69 69 68 67 66 65 64 65 64 64 64 65 64 64 65 63 63 57 56 57 59 59 61 62 61 63 65 65 65 64 62 64 64 62
74 72 72 72 70 71 72 71 72 71 73 73 74 75 75 75 74 74 74 74 72 73 72 73 72 71 71 71 71 70 70 68 68 67 66 65 66 66 66 65 64 62 63 64 62 61 60 61 57 58 59 59 58 62 62 62 64 63 64 63 64 64 63
73 73 70 72 71 70 72 71 72 72 72 73 73 74 74 75 74 74 74 74 74 72 72 73 72 72 72 71 71 71 70 69 68 67 66 66 66 65 66 65 65 65 63 62 62 62 61 58 58 57 60 62 62 60 61 64 65 63 64 62 64 63 62
73 73 72 71 73 71 72 71 71 71 71 72 72 73 73 73 73 73 74 74 73 73 71 73 73 72 72 71 70 70 70 69 68 68 67 66 65 65 65 65 65 65 64 64 63 63 62 60 60 58 58 60 62 61 63 61 64 64 63 64 64 64 63
74 74 73 72 74 72 72 71 71 71 71 71 72 72 73 73 73 72 72 73 72 73 73 72 72 72 72 71 70 70 70 69 68 68 66 66 66 65 66 65 65 65 65 64 65 64 63 63 62 58 58 61 59 59 61 62 60 65 64 64 64 64 63
74 74 74 73 74 74 73 72 72 72 72 72 72 72 74 75 74 73 73 73 72 72 73 72 72 72 72 72 70 70 70 70 68 68 67 67 66 66 66 65 65 65 65 65 65 65 63 62 59 60 59 59 59 57 58 60 62 63 61 63 64 65 64
75 74 74 74 74 74 74 74 73 74 73 73 74 74 74 74 74 72 73 73 72 71 72 72 72 71 71 71 71 70 70 69 69 68 67 67 67 66 65 65 65 65 65 64 65 65 64 64 61 60 60 60 57 55 56 59 58 62 63 62 66 65 65
75 75 74 74 75 75 75 75 74 74 74 74 74 74 74 74 74 73 72 73 73 71 72 73 72 70 70 70 70 69 69 70 68 68 68 67 67 66 66 65 65 65 65 65 65 64 63 64 64 62 62 60 58 54 55 54 55 58 64 60 63 65 65
74 74 74 74 75 75 76 75 75 74 74 74 73 74 74 74 74 74 73 73 73 72 71 72 72 71 70 70 70 69 69 69 69 68 67 67 67 66 66 65 65 64 64 65 66 66 66 65 65 62 63 62 60 57 52 52 54 55 61 65 61 63 66
75 75 75 75 76 75 75 75 75 74 74 75 75 74 74 74 74 74 73 72 72 73 72 71 72 71 70 70 70 70 70 69 68 67 67 68 67 66 66 65 65 64 65 65 65 66 66 66 64 64 63 63 61 59 56 54 53 58 58 62 64 61 61
75 76 76 76 76 76 75 75 75 75 75 74 74 74 73 74 74 73 73 72 72 72 72 71 71 71 70 69 69 69 69 69 68 67 67 67 67 66 65 65 65 65 65 65 65 65 65 65 65 63 62 63 61 61 59 57 54 55 59 59 59 65 61
76 76 76 76 76 76 76 76 76 75 75 75 75 75 74 74 74 73 73 72 72 72 72 72 71 71 70 69 68 68 68 68 68 67 67 67 68 67 66 65 65 65 65 65 65 65 64 64 65 62 63 62 61 60 58 56 56 54 56 56 59 61 62
75 76 76 76 76 76 76 76 76 76 76 75 75 74 74 74 74 74 73 72 72 72 72 71 71 71 70 68 69 69 68 68 68 67 67 66 68 67 66 66 65 65 65 65 64 64 64 64 63 62 64 61 60 60 61 57 55 53 57 54 55 57 59
76 76 75 76 75 76 76 76 76 76 75 75 75 75 74 74 74 73 73 73 72 72 72 72 71 71 70 69 68 69 69 68 68 67 67 66 67 68 66 66 66 65 65 65 64 64 64 62 63 62 61 62 59 60 60 61 55 53 53 54 54 58 57
75 75 75 75 75 76 76 76 76 75 75 75 75 75 74 74 74 73 73 73 73 72 72 72 71 71 70 70 69 69 69 68 68 67 66 67 67 67 65 65 65 65 66 65 64 64 63 63 63 63 62 61 61 60 59 60 56 53 54 53 53 58 58
75 75 75 75 75 76 76 76 76 76 75 75 74 74 75 74 74 73 73 73 73 72 72 72 71 71 71 70 69 69 69 68 68 68 68 67 67 67 66 64 63 64 64 64 63 61 61 62 61 61 61 60 61 59 58 57 59 51 52 54 53 56 56
74 75 75 75 75 75 76 77 76 76 76 75 75 75 74 74 74 73 73 73 73 73 72 72 71 71 71 71 70 69 69 69 68 68 68 68 68 67 66 65 64 63 62 63 61 61 61 60 61 61 60 60 60 59 58 58 58 55 55 54 54 54 54
74 75 75 75 75 76 76 76 76 76 76 75 75 75 74 74 74 74 74 74 73 73 73 72 72 71 71 71 70 70 69 69 68 68 67 67 68 67 66 66 65 64 63 62 60 61 60 60 60 59 59 59 59 57 56 54 55 55 56 54 55 54 52
74 74 75 75 76 76 76 76 76 76 76 76 75 74 74 74 74 74 74 74 73 73 74 73 72 71 71 71 70 69 69 69 68 68 68 67 68 67 66 65 65 64 65 63 61 60 60 58 59 58 58 58 56 57 54 55 55 55 55 54 53 52 53
73 74 75 76 76 76 77 76 76 77 76 75 75 74 74 74 74 74 74 74 74 74 73 73 73 72 71 71 70 69 69 68 68 67 67 67 67 67 65 65 64 64 64 63 62 61 60 59 58 58 57 58 56 56 55 53 54 54 53 53 52 50 50
72 73 74 75 76 76 76 77 77 76 76 75 75 75 75 75 74 74 74 74 74 74 73 73 73 72 71 71 70 69 69 69 68 67 67 66 66 66 65 64 64 64 63 64 62 61 61 61 59 59 56 56 55 55 54 54 54 53 52 52 52 51 51
73 74 74 74 75 76 76 76 76 76 75 76 75 75 75 75 75 74 73 73 73 73 73 73 69 63 64 71 70 70 69 68 69 68 66 65 65 65 64 63 64 65 63 62 59 57 55 57 60 62 58 55 56 55 54 54 53 53 53 51 50 50 50
74 74 75 75 75 75 75 76 75 75 75 75 75 74 74 74 74 74 74 73 73 72 73 73 62 55 56 59 69 70 69 67 68 68 67 65 64 63 62 63 62 63 62 61 59 54 53 54 54 55 56 57 59 58 55 54 53 52 52 52 50 51 51
74 75 75 75 75 75 75 75 75 75 75 74 75 75 74 74 74 74 74 74 73 73 73 66 55 53 54 55 61 70 69 68 67 67 67 66 64 63 62 62 62 62 61 61 60 57 55 53 52 51 50 51 52 54 55 57 55 51 51 53 51 52 51
74 74 75 75 75 75 75 74 74 74 74 75 75 73 73 73 73 74 74 73 73 73 73 62 53 52 52 53 55 64 70 69 67 67 66 66 65 63 62 61 61 60 62 61 59 56 55 53 51 50 50 50 48 47 46 48 52 58 54 54 54 51 53
74 74 75 75 75 75 74 74 74 75 75 74 74 74 73 73 74 73 74 73 73 74 73 61 51 51 52 52 52 60 71 69 67 67 67 66 65 64 62 61 59 58 57 58 57 55 54 53 51 52 52 52 52 51 46 46 46 49 53 56 55 56 54
74 75 75 75 74 74 74 74 74 74 74 74 74 73 73 72 73 73 73 74 73 73 74 57 50 50 51 51 51 58 71 69 68 67 67 65 65 64 63 62 60 59 57 57 56 55 54 53 53 52 52 51 51 51 51 50 50 52 53 52 53 53 50
73 74 74 74 74 74 74 74 74 74 74 74 75 74 74 74 73 73 73 73 72 72 74 53 50 50 50 50 50 66 70 68 67 66 67 65 64 64 63 61 60 58 57 57 54 50 53 54 53 52 51 50 49 49 50 52 48 50 53 52 50 50 49
68 69 71 72 73 73 73 73 74 75 73 74 74 73 73 73 73 73 72 72 72 72 72 54 49 49 49 49 53 69 69 68 66 65 66 64 64 63 63 61 60 58 57 57 51 47 48 53 54 53 52 50 50 50 49 45 43 43 44 44 44 43 41
68 70 70 69 71 72 73 74 75 74 74 73 73 73 73 73 73 73 72 72 72 71 72 58 48 49 49 48 58 70 69 67 66 65 65 64 64 64 64 61 62 59 58 57 47 46 47 53 55 53 52 51 49 49 46 47 48 45 42 42 42 42 43
65 67 69 69 69 68 71 72 73 74 74 74 74 74 73 73 73 73 73 73 67 70 72 57 46 48 48 48 59 70 69 67 65 65 65 64 64 63 63 60 59 59 59 54 45 46 47 54 56 54 53 52 50 49 48 48 48 46 46 46 44 46 45
67 67 69 70 71 71 72 72 72 73 73 74 73 72 72 72 71 72 72 71 71 70 69 57 50 47 48 49 55 70 69 67 65 64 64 64 62 63 63 61 57 50 50 46 45 45 46 50 55 54 53 52 51 50 49 50 49 49 48 49 47 47 47
63 64 66 68 67 65 65 67 70 71 72 72 70 68 70 70 71 71 72 71 72 71 68 59 52 46 48 49 52 61 69 68 67 65 64 63 63 62 62 61 59 51 47 45 45 45 46 48 51 55 54 53 54 53 50 51 51 52 49 48 47 46 47
61 62 63 63 64 65 65 66 66 66 65 65 63 62 62 65 69 71 71 71 71 71 64 57 56 47 47 49 52 56 67 68 67 66 64 64 64 63 63 61 59 50 46 45 45 45 46 47 48 54 54 49 47 45 52 53 51 50 48 48 47 46 47
61 62 62 62 61 62 63 64 65 63 61 61 61 62 63 63 64 66 69 70 70 71 63 57 51 51 47 48 50 53 57 61 54 66 65 63 63 63 63 62 58 49 46 45 45 45 46 46 48 52 47 45 45 45 49 51 50 50 48 48 47 47 47
62 62 62 62 61 61 61 61 60 59 59 60 61 61 61 62 62 63 65 68 69 67 60 59 50 50 50 47 49 51 52 53 52 65 66 65 64 64 62 61 55 46 46 45 45 45 45 46 51 46 44 45 44 45 51 50 49 50 48 47 47 47 48
MSLP
1013.11 1013.39 1013.39 1013.43 1013.51 1013.63 1013.83 1013.95 1014.07 1014.23 1014.39 1014.51 1014.83 1014.99 1015.19 1015.51 1015.79 1016.11 1016.35 1016.67 1016.91 1017.03 1017.27 1017.55 1017.75 1017.91 1018.23 1018.39 1018.47 1018.51 1018.71 1019.03 1019.35 1019.75 1020.19 1020.31 1020.71 1020.67 1020.39 1020.55 1020.47 1020.47 1020.51 1020.67 1020.87 1021.51 1021.99 1022.87 1022.63 1021.87 1021.71 1021.67 1021.71 1021.83 1021.75 1021.87 1021.91 1022.03 1022.07 1022.27 1022.35 1022.43 1022.55
1012.51 1012.91 1013.07 1013.15 1013.39 1013.39 1013.67 1013.75 1013.87 1014.03 1014.19 1014.31 1014.43 1014.67 1014.87 1015.15 1015.43 1015.75 1015.99 1016.35 1016.55 1016.71 1016.83 1017.11 1017.31 1017.51 1017.79 1018.11 1018.43 1018.59 1018.71 1018.87 1018.99 1019.19 1019.55 1019.95 1020.11 1020.31 1020.47 1020.59 1020.51 1020.63 1020.59 1020.55 1020.67 1020.79 1021.71 1022.51 1022.55 1022.39 1022.11 1021.87 1021.75 1021.67 1021.63 1021.55 1021.55 1021.63 1021.71 1021.91 1021.99 1022.07 1022.19
1012.03 1012.39 1012.71 1013.03 1013.23 1013.23 1013.47 1013.59 1013.67 1013.87 1013.99 1014.23 1014.27 1014.39 1014.59 1014.75 1015.07 1015.31 1015.63 1015.91 1016.15 1016.27 1016.47 1016.71 1016.95 1017.23 1017.39 1017.59 1017.79 1018.03 1018.23 1018.51 1018.63 1018.87 1019.15 1019.31 1019.47 1019.67 1019.75 1019.99 1020.51 1020.63 1020.71 1020.67 1020.71 1020.87 1020.99 1021.23 1021.95 1022.23 1021.99 1022.15 1022.51 1021.67 1021.47 1021.51 1021.39 1021.43 1021.47 1021.59 1021.75 1021.87 1021.95
1011.63 1011.83 1012.51 1012.87 1013.03 1013.19 1013.23 1013.35 1013.43 1013.55 1013.75 1013.99 1014.07 1014.19 1014.31 1014.47 1014.71 1014.91 1015.23 1015.47 1015.71 1015.91 1016.11 1016.35 1016.59 1016.83 1016.99 1017.15 1017.39 1017.63 1017.87 1018.11 1018.39 1018.51 1018.79 1018.91 1019.11 1019.39 1019.47 1019.63 1019.87 1020.03 1020.27 1020.55 1020.51 1020.59 1020.79 1021.19 1021.43 1021.59 1021.67 1021.63 1021.63 1021.87 1021.31 1021.03 1021.11 1021.19 1021.27 1021.43 1021.55 1021.63 1021.71
1011.15 1011.39 1011.75 1012.27 1012.43 1012.71 1012.71 1012.99 1013.11 1013.39 1013.59 1013.71 1013.87 1014.03 1014.15 1014.19 1014.43 1014.67 1014.83 1015.11 1015.39 1015.59 1015.79 1015.83 1016.11 1016.35 1016.55 1016.79 1017.11 1017.39 1017.55 1017.67 1017.87 1018.19 1018.43 1018.71 1018.87 1019.07 1019.15 1019.19 1019.35 1019.43 1019.67 1019.83 1019.87 1019.99 1020.39 1020.55 1020.67 1021.03 1021.39 1021.35 1021.51 1021.35 1020.91 1021.03 1020.95 1021.03 1021.11 1021.19 1021.23 1021.31 1021.43
1010.55 1010.79 1011.15 1011.59 1011.83 1012.27 1012.43 1012.71 1012.99 1013.11 1013.31 1013.63 1013.59 1013.75 1013.71 1013.83 1014.07 1014.43 1014.63 1014.79 1015.03 1015.15 1015.27 1015.47 1015.67 1015.91 1016.19 1016.47 1016.79 1017.07 1017.23 1017.43 1017.59 1017.79 1018.15 1018.27 1018.39 1018.67 1018.83 1018.83 1018.95 1019.15 1019.27 1019.19 1019.35 1019.59 1019.71 1019.83 1020.15 1020.67 1020.79 1020.79 1021.23 1021.19 1020.95 1020.99 1021.11 1020.79 1020.79 1020.91 1020.95 1021.03 1021.15
1009.95 1010.23 1010.63 1010.99 1011.19 1011.47 1011.83 1012.11 1012.31 1012.43 1012.71 1012.75 1012.95 1013.07 1013.11 1013.39 1013.63 1013.83 1014.11 1014.35 1014.55 1014.79 1014.99 1015.19 1015.31 1015.51 1015.75 1016.11 1016.43 1016.75 1016.95 1016.99 1017.15 1017.39 1017.59 1017.83 1018.03 1018.15 1018.31 1018.67 1018.79 1018.79 1018.83 1018.87 1019.03 1019.19 1019.39 1019.71 1020.07 1020.27 1020.51 1020.67 1020.67 1020.83 1020.87 1020.95 1020.71 1021.11 1020.99 1020.71 1020.59 1020.63 1020.71
1009.35 1009.67 1010.03 1010.31 1010.55 1010.95 1011.19 1011.51 1011.75 1011.95 1012.19 1012.23 1012.31 1012.43 1012.79 1012.99 1013.19 1013.55 1013.75 1013.99 1014.23 1014.47 1014.67 1014.95 1015.11 1015.27 1015.43 1015.71 1016.07 1016.31 1016.51 1016.67 1016.87 1017.03 1017.31 1017.55 1017.83 1017.99 1018.11 1018.23 1018.39 1018.51 1018.51 1018.55 1018.63 1018.79 1018.83 1018.99 1019.31 1019.63 1020.03 1020.67 1020.71 1020.71 1020.95 1020.87 1020.83 1020.71 1020.43 1020.39 1020.35 1020.51 1020.47
1008.75 1009.11 1009.59 1010.03 1010.23 1010.19 1010.51 1010.87 1011.15 1011.35 1011.47 1011.75 1011.95 1012.23 1012.39 1012.59 1012.87 1013.19 1013.43 1013.59 1013.79 1014.11 1014.35 1014.59 1014.83 1015.07 1015.19 1015.47 1015.79 1016.03 1016.31 1016.27 1016.63 1016.79 1016.99 1017.19 1017.39 1017.55 1017.71 1017.83 1018.11 1018.19 1018.15 1018.19 1018.27 1018.35 1018.47 1018.55 1018.71 1018.95 1019.35 1019.87 1020.59 1021.19 1021.15 1021.23 1021.11 1020.79 1020.23 1020.51 1020.39 1020.23 1020.27
1008.47 1008.87 1009.23 1009.55 1009.71 1009.71 1009.95 1010.31 1010.59 1010.75 1011.11 1011.47 1011.71 1011.79 1012.07 1012.23 1012.47 1012.71 1013.03 1013.23 1013.43 1013.67 1013.99 1014.23 1014.43 1014.75 1014.95 1015.15 1015.43 1015.71 1015.99 1016.03 1016.27 1016.51 1016.63 1016.87 1016.99 1017.19 1017.39 1017.59 1017.75 1017.87 1017.91 1017.87 1017.95 1018.07 1018.15 1018.23 1018.35 1018.51 1018.75 1019.27 1019.71 1020.43 1021.03 1021.19 1021.07 1020.91 1020.31 1019.99 1020.31 1020.15 1019.91
1007.91 1008.23 1008.59 1009.03 1009.35 1009.71 1009.83 1009.99 1010.23 1010.67 1010.83 1010.83 1011.15 1011.43 1011.67 1011.95 1012.15 1012.35 1012.59 1012.83 1013.03 1013.27 1013.55 1013.87 1014.07 1014.35 1014.67 1014.91 1015.03 1015.27 1015.39 1015.67 1015.99 1016.19 1016.35 1016.47 1016.75 1016.91 1017.11 1017.35 1017.51 1017.67 1017.59 1017.67 1017.71 1017.75 1017.87 1017.95 1018.11 1018.23 1018.47 1018.63 1018.95 1019.59 1020.07 1020.63 1020.55 1020.15 1019.87 1019.55 1019.51 1019.87 1019.99
1007.39 1007.83 1008.23 1008.63 1009.07 1009.47 1009.63 1009.67 1009.79 1009.83 1010.15 1010.59 1010.91 1011.11 1011.39 1011.63 1011.83 1012.03 1012.19 1012.47 1012.67 1012.91 1013.11 1013.43 1013.71 1014.03 1014.31 1014.71 1014.87 1015.07 1015.19 1015.43 1015.71 1015.99 1016.07 1016.23 1016.39 1016.63 1016.87 1017.11 1017.19 1017.31 1017.27 1017.35 1017.39 1017.47 1017.55 1017.67 1017.79 1017.95 1018.15 1018.35 1018.67 1018.87 1019.39 1019.79 1020.31 1019.47 1019.39 1019.51 1019.31 1019.15 1019.63
1006.79 1007.31 1007.79 1008.31 1008.75 1008.99 1009.15 1009.35 1009.43 1009.67 1009.83 1009.95 1010.27 1010.59 1010.99 1011.19 1011.39 1011.67 1011.87 1012.11 1012.35 1012.51 1012.79 1012.99 1013.27 1013.63 1013.99 1014.27 1014.55 1014.79 1014.91 1015.11 1015.43 1015.63 1015.79 1015.83 1015.99 1016.23 1016.47 1016.71 1016.79 1016.87 1016.91 1016.99 1017.11 1017.19 1017.35 1017.43 1017.51 1017.71 1017.87 1018.15 1018.39 1018.47 1018.63 1019.07 1019.43 1019.31 1019.03 1018.87 1018.83 1019.11 1019.35
1006.67 1006.95 1007.43 1007.87 1008.39 1008.67 1008.83 1008.95 1009.03 1008.99 1009.27 1009.71 1009.83 1010.31 1010.59 1010.75 1010.95 1011.23 1011.51 1011.75 1011.95 1012.15 1012.39 1012.63 1012.87 1013.23 1013.55 1013.95 1014.15 1014.35 1014.59 1014.79 1015.03 1015.27 1015.43 1015.63 1015.63 1015.83 1015.99 1016.23 1016.35 1016.39 1016.43 1016.71 1016.87 1017.03 1017.11 1017.19 1017.35 1017.47 1017.59 1017.87 1018.11 1018.19 1018.31 1018.63 1019.03 1019.23 1019.15 1019.03 1018.91 1019.27 1019.63
1006.35 1006.63 1007.03 1007.43 1007.83 1008.15 1008.43 1008.59 1008.63 1008.83 1009.07 1009.11 1009.31 1009.67 1010.03 1010.31 1010.63 1010.91 1011.23 1011.39 1011.55 1011.75 1011.91 1012.15 1012.47 1012.79 1013.19 1013.55 1013.83 1013.99 1014.19 1014.43 1014.67 1014.91 1015.07 1015.27 1015.35 1015.39 1015.59 1015.83 1015.99 1016.07 1016.11 1016.35 1016.55 1016.75 1016.83 1017.03 1017.15 1017.35 1017.47 1017.55 1017.75 1017.87 1017.83 1018.19 1018.67 1019.03 1019.39 1019.27 1019.31 1019.43 1019.75
1006.07 1006.47 1006.87 1007.07 1007.39 1007.67 1007.87 1008.07 1008.19 1008.47 1008.55 1008.71 1008.87 1009.07 1009.47 1009.91 1010.27 1010.55 1010.87 1011.03 1011.23 1011.39 1011.51 1011.75 1011.99 1012.31 1012.63 1012.99 1013.35 1013.59 1013.71 1013.95 1014.23 1014.51 1014.71 1014.75 1014.87 1014.99 1015.31 1015.43 1015.55 1015.71 1015.87 1016.15 1016.27 1016.35 1016.51 1016.71 1016.87 1017.03 1017.15 1017.23 1017.43 1017.51 1017.71 1017.87 1018.39 1018.99 1019.23 1019.55 1019.47 1019.43 1019.59
1005.87 1006.23 1006.59 1006.67 1006.91 1007.07 1007.23 1007.47 1007.63 1007.87 1007.99 1008.23 1008.55 1008.67 1008.95 1009.47 1009.87 1010.19 1010.47 1010.71 1010.83 1010.91 1011.11 1011.27 1011.55 1011.79 1012.07 1012.43 1012.83 1013.11 1013.31 1013.55 1013.75 1013.95 1014.11 1014.31 1014.47 1014.63 1014.79 1015.11 1015.23 1015.39 1015.59 1015.91 1016.07 1016.27 1016.35 1016.39 1016.59 1016.75 1016.91 1017.07 1017.19 1017.39 1017.59 1017.83 1017.87 1018.39 1019.11 1019.27 1019.47 1019.31 1019.39
1005.59 1005.79 1005.99 1006.19 1006.43 1006.59 1006.79 1006.99 1007.19 1007.35 1007.55 1007.87 1008.03 1008.31 1008.67 1008.95 1009.43 1009.71 1010.03 1010.15 1010.31 1010.43 1010.55 1010.75 1011.11 1011.35 1011.55 1011.83 1012.23 1012.59 1012.91 1013.15 1013.35 1013.51 1013.63 1013.75 1013.91 1014.07 1014.27 1014.47 1014.79 1015.07 1015.31 1015.59 1015.83 1016.03 1016.15 1016.27 1016.31 1016.51 1016.71 1016.95 1017.11 1017.27 1017.47 1017.67 1017.79 1017.91 1018.55 1018.91 1019.19 1019.27 1019.27
1004.95 1005.11 1005.31 1005.63 1005.83 1006.03 1006.23 1006.43 1006.63 1006.83 1006.99 1007.31 1007.55 1007.79 1008.11 1008.47 1008.71 1009.03 1009.27 1009.59 1009.83 1009.99 1010.07 1010.27 1010.51 1010.83 1011.11 1011.43 1011.79 1012.11 1012.39 1012.71 1012.95 1013.11 1013.27 1013.35 1013.43 1013.59 1013.79 1014.07 1014.35 1014.59 1014.91 1015.15 1015.47 1015.59 1015.79 1015.99 1016.19 1016.35 1016.55 1016.75 1016.91 1017.07 1017.35 1017.63 1017.75 1017.91 1018.15 1018.63 1018.87 1019.19 1019.39
1004.47 1004.67 1004.83 1004.99 1005.19 1005.51 1005.79 1005.95 1006.23 1006.47 1006.51 1006.75 1007.07 1007.35 1007.59 1007.95 1008.11 1008.39 1008.71 1009.07 1009.39 1009.47 1009.63 1009.79 1009.99 1010.31 1010.63 1010.95 1011.27 1011.71 1012.03 1012.27 1012.59 1012.79 1012.83 1012.95 1013.07 1013.23 1013.43 1013.71 1013.95 1014.11 1014.31 1014.55 1014.95 1015.19 1015.43 1015.67 1015.91 1016.11 1016.27 1016.47 1016.63 1016.87 1017.35 1017.51 1017.79 1017.91 1018.15 1018.55 1018.87 1018.87 1019.07
1003.91 1004.15 1004.19 1004.31 1004.55 1004.71 1004.95 1005.35 1005.75 1005.99 1006.23 1006.47 1006.63 1006.87 1007.15 1007.39 1007.55 1007.87 1008.19 1008.55 1008.79 1009.03 1009.27 1009.39 1009.47 1009.71 1009.99 1010.31 1010.75 1011.15 1011.51 1011.87 1012.19 1012.39 1012.51 1012.63 1012.75 1012.91 1013.11 1013.35 1013.55 1013.71 1013.83 1014.03 1014.27 1014.71 1014.99 1015.31 1015.59 1015.83 1016.03 1016.19 1016.55 1016.95 1017.23 1017.51 1017.71 1017.91 1018.19 1018.43 1018.55 1018.91 1019.03
1003.51 1003.67 1003.83 1003.95 1004.03 1004.11 1004.31 1004.63 1005.07 1005.47 1005.79 1006.03 1006.07 1006.23 1006.43 1006.75 1007.27 1007.71 1007.87 1008.11 1008.35 1008.59 1008.79 1008.79 1008.75 1008.95 1009.35 1009.79 1010.11 1010.63 1010.99 1011.35 1011.67 1012.03 1012.23 1012.39 1012.51 1012.67 1012.91 1013.07 1013.19 1013.35 1013.51 1013.71 1013.87 1014.19 1014.51 1014.79 1015.23 1015.59 1015.95 1016.11 1016.43 1016.75 1017.11 1017.31 1017.47 1017.79 1018.03 1018.27 1018.51 1018.75 1018.87
1003.11 1003.31 1003.55 1003.67 1003.71 1003.67 1003.75 1003.99 1004.43 1004.99 1005.39 1005.51 1005.63 1005.79 1006.07 1006.39 1006.75 1007.11 1007.43 1007.63 1007.87 1008.15 1008.19 1008.03 1007.95 1008.19 1008.59 1009.07 1009.59 1010.03 1010.51 1010.87 1011.19 1011.51 1011.91 1012.19 1012.35 1012.43 1012.59 1012.79 1012.91 1012.99 1013.23 1013.47 1013.75 1014.03 1014.35 1014.55 1014.67 1014.91 1015.39 1015.87 1016.19 1016.59 1016.87 1017.11 1017.35 1017.51 1017.71 1018.03 1018.23 1018.55 1018.79
1002.63 1002.79 1002.83 1003.11 1003.31 1003.39 1003.35 1003.43 1003.87 1004.39 1004.83 1005.07 1005.27 1005.43 1005.75 1006.11 1006.35 1006.51 1006.75 1007.03 1007.39 1007.51 1007.47 1007.27 1007.35 1007.79 1008.15 1008.47 1008.95 1009.51 1009.99 1010.43 1010.75 1011.07 1011.39 1011.71 1012.03 1012.27 1012.43 1012.51 1012.67 1012.79 1012.99 1013.31 1013.63 1013.91 1014.19 1014.31 1014.51 1014.75 1015.07 1015.35 1015.67 1015.99 1016.55 1016.87 1017.07 1017.23 1017.47 1017.67 1018.07 1018.31 1018.35
1002.15 1002.15 1002.23 1002.43 1002.75 1003.03 1003.07 1003.11 1003.39 1003.83 1004.35 1004.75 1004.87 1005.03 1005.35 1005.51 1005.71 1005.95 1006.19 1006.43 1006.71 1006.83 1006.79 1006.55 1006.87 1007.35 1007.75 1008.03 1008.35 1008.83 1009.39 1009.91 1010.39 1010.67 1010.91 1011.19 1011.55 1011.91 1012.15 1012.39 1012.51 1012.63 1012.91 1013.15 1013.51 1013.87 1014.03 1014.19 1014.39 1014.67 1014.99 1015.31 1015.63 1015.75 1015.79 1016.07 1016.55 1017.11 1017.27 1017.43 1017.75 1017.83 1018.03
1001.51 1001.63 1001.71 1001.79 1002.07 1002.43 1002.71 1002.83 1002.99 1003.35 1003.79 1004.03 1004.35 1004.67 1004.75 1004.99 1005.23 1005.35 1005.67 1005.99 1006.15 1006.15 1006.11 1006.03 1006.47 1006.83 1007.23 1007.59 1007.91 1008.27 1008.79 1009.23 1009.87 1010.23 1010.47 1010.75 1011.15 1011.47 1011.79 1012.11 1012.35 1012.55 1012.75 1012.99 1013.39 1013.75 1014.07 1014.39 1014.59 1014.71 1014.95 1015.31 1015.59 1015.71 1015.91 1016.03 1016.11 1016.19 1016.67 1016.95 1017.19 1017.55 1017.59
1000.95 1001.03 1001.07 1001.31 1001.63 1001.95 1002.23 1002.39 1002.47 1002.67 1003.03 1003.43 1003.87 1004.15 1004.31 1004.47 1004.59 1004.91 1005.15 1005.35 1005.43 1005.43 1005.51 1005.59 1005.95 1006.27 1006.67 1007.11 1007.51 1007.79 1008.23 1008.75 1009.27 1009.67 1009.95 1010.27 1010.63 1010.99 1011.31 1011.67 1012.07 1012.51 1012.75 1012.99 1013.31 1013.63 1013.99 1014.35 1014.79 1014.99 1015.11 1015.27 1015.47 1015.71 1015.87 1015.95 1016.07 1016.27 1016.39 1016.47 1016.75 1016.91 1017.07
1000.31 1000.39 1000.51 1000.79 1001.11 1001.39 1001.63 1001.83 1002.07 1002.31 1002.59 1002.95 1003.27 1003.51 1003.75 1004.03 1004.11 1004.27 1004.51 1004.67 1004.91 1005.03 1004.95 1004.99 1005.39 1005.75 1006.23 1006.67 1007.11 1007.39 1007.83 1008.35 1008.79 1009.19 1009.47 1009.79 1010.11 1010.47 1010.83 1011.19 1011.59 1012.03 1012.51 1012.83 1013.07 1013.27 1013.75 1014.23 1014.59 1014.91 1015.07 1015.23 1015.35 1015.55 1015.71 1015.91 1016.03 1016.15 1016.27 1016.35 1016.43 1016.59 1016.79
1000.63 1000.03 1000.07 1000.31 1000.55 1000.79 1000.99 1001.23 1001.59 1001.79 1002.11 1002.35 1002.47 1002.71 1002.99 1003.19 1003.51 1003.71 1003.79 1004.07 1004.47 1004.67 1004.43 1004.67 1004.99 1005.35 1005.83 1006.39 1006.95 1007.19 1007.43 1007.95 1008.35 1008.71 1009.07 1009.35 1009.71 1010.03 1010.39 1010.83 1011.31 1011.79 1012.19 1012.47 1012.79 1012.99 1013.31 1013.87 1014.31 1014.71 1014.99 1015.23 1015.43 1015.59 1015.67 1015.91 1016.07 1016.11 1016.19 1016.27 1016.43 1016.59 1016.83
1001.11 1001.19 1000.67 1000.19 1000.03 1000.15 1000.35 1000.71 1000.91 1001.11 1001.67 1001.79 1002.03 1002.23 1002.39 1002.63 1002.75 1003.07 1003.35 1003.63 1003.95 1004.03 1003.99 1004.27 1004.55 1004.91 1005.43 1006.03 1006.75 1006.71 1007.07 1007.51 1007.95 1008.35 1008.55 1008.91 1009.27 1009.63 1009.99 1010.43 1010.87 1011.43 1011.83 1012.15 1012.55 1012.83 1013.07 1013.31 1013.95 1014.43 1014.79 1015.11 1015.35 1015.51 1015.67 1016.19 1016.39 1016.27 1016.35 1016.47 1016.55 1016.87 1017.07
1000.63 1000.39 1000.39 1000.55 1000.27 999.79 999.71 999.87 1000.15 1000.39 1000.87 1001.23 1001.47 1001.51 1001.71 1002.07 1002.23 1002.39 1002.67 1002.91 1003.03 1003.35 1003.31 1003.67 1004.11 1004.55 1005.03 1005.59 1005.75 1006.03 1006.51 1007.07 1007.55 1007.99 1008.35 1008.59 1008.83 1009.15 1009.51 1009.91 1010.35 1010.87 1011.35 1011.75 1012.31 1012.59 1012.83 1012.91 1013.47 1014.03 1014.51 1014.95 1015.35 1015.51 1015.87 1016.27 1016.39 1016.83 1016.87 1016.83 1016.87 1016.99 1017.11
1000.31 1000.55 1000.19 1000.15 1000.19 1000.51 999.99 999.59 999.59 999.75 1000.03 1000.35 1000.59 1000.79 1001.19 1001.47 1001.71 1001.83 1001.91 1002.11 1002.35 1002.71 1002.83 1003.51 1004.23 1004.27 1004.71 1005.11 1005.35 1005.51 1006.11 1006.71 1007.31 1007.67 1007.99 1008.35 1008.51 1008.79 1009.23 1009.59 1009.87 1010.31 1010.75 1011.39 1012.03 1012.31 1012.55 1012.55 1012.87 1013.51 1014.03 1014.59 1014.99 1015.19 1015.39 1015.71 1015.79 1016.31 1016.67 1016.83 1017.11 1017.07 1017.27
998.99 999.47 999.47 999.23 999.19 999.59 999.67 999.39 999.27 999.31 999.43 999.63 999.91 1000.27 1000.67 1000.95 1001.35 1001.55 1001.63 1001.83 1002.07 1002.27 1002.67 1003.35 1004.15 1004.15 1004.27 1004.71 1004.79 1004.95 1005.55 1006.27 1006.75 1007.11 1007.51 1007.87 1008.31 1008.63 1008.87 1009.31 1009.75 1010.03 1010.55 1011.19 1011.75 1012.07 1012.23 1012.31 1012.51 1013.07 1013.59 1013.99 1014.43 1014.51 1014.91 1015.27 1015.43 1015.63 1016.07 1016.19 1016.59 1016.79 1016.91
998.79 999.15 999.31 998.95 998.87 999.27 999.95 1000.07 999.23 998.95 999.07 999.23 999.79 1000.47 1000.79 1000.71 1000.87 1001.15 1001.35 1001.55 1001.67 1001.87 1002.11 1002.83 1003.63 1004.03 1003.99 1004.19 1004.39 1004.47 1004.99 1005.27 1005.71 1006.51 1006.99 1007.51 1007.71 1008.03 1008.51 1008.95 1009.47 1009.91 1010.35 1010.95 1011.35 1011.59 1011.87 1012.03 1012.19 1012.59 1012.91 1013.19 1013.31 1013.63 1014.55 1014.95 1015.43 1015.55 1015.87 1016.15 1016.43 1016.75 1016.91
998.43 998.55 999.11 999.95 999.87 998.83 998.51 998.95 999.55 999.63 999.07 998.99 999.59 1000.59 1001.51 1001.67 1000.91 1000.59 1000.83 1000.99 1001.23 1001.39 1001.67 1002.11 1002.91 1003.83 1003.75 1003.79 1003.95 1003.87 1004.23 1004.59 1004.91 1005.71 1006.55 1006.95 1007.23 1007.47 1007.71 1008.31 1009.03 1009.67 1009.99 1010.47 1010.83 1011.23 1011.43 1011.71 1011.99 1012.27 1012.47 1012.71 1013.35 1013.91 1014.19 1014.43 1014.91 1015.43 1015.79 1016.11 1016.43 1016.71 1016.87
998.35 998.59 998.51 998.39 999.23 999.75 999.11 998.91 998.87 999.31 999.67 999.39 999.31 999.63 1000.07 1000.67 1001.51 1001.27 1000.71 1000.59 1000.75 1000.91 1001.39 1001.99 1002.31 1003.03 1003.55 1003.51 1003.55 1003.63 1003.55 1004.15 1004.83 1005.07 1005.63 1006.23 1006.51 1006.91 1007.35 1007.87 1008.51 1009.23 1009.55 1009.99 1010.39 1010.63 1011.03 1011.43 1011.87 1012.03 1012.35 1012.75 1013.19 1013.59 1013.99 1014.43 1014.83 1015.19 1015.59 1015.91 1016.23 1016.43 1016.63
998.23 998.35 998.27 998.31 998.35 998.59 998.91 998.91 998.99 999.39 1000.11 1000.03 999.67 999.59 999.79 1000.07 1000.67 1001.39 1001.23 1000.71 1000.59 1000.75 1001.31 1001.71 1002.35 1002.39 1002.91 1003.35 1003.31 1003.47 1003.71 1003.87 1004.27 1004.51 1004.99 1005.51 1005.99 1006.55 1007.03 1007.55 1008.31 1008.99 1009.31 1009.59 1009.87 1010.35 1010.79 1011.27 1011.47 1011.83 1012.19 1012.47 1012.91 1013.43 1013.83 1014.27 1014.63 1014.87 1015.31 1015.71 1015.95 1016.11 1016.23
Wind_Speed
11 10 10 9 6 8 9 9 8 10 10 11 10 10 9 9 9 9 9 8 9 9 9 8 9 8 8 8 10 10 8 8 10 9 8 8 10 7 7 7 5 2 5 4 4 7 5 6 6 3 2 7 6 7 9 9 8 7 8 5 7 8 7
9 7 8 8 7 8 10 8 8 9 10 10 10 10 10 10 9 10 10 9 9 10 9 8 8 9 10 10 10 9 9 8 9 7 8 9 9 8 7 7 6 5 4 5 4 4 3 4 5 7 5 2 4 5 7 8 8 7 8 8 8 8 7
10 8 8 10 8 8 10 10 9 8 9 9 10 10 10 11 10 10 10 11 9 10 9 10 9 9 9 10 12 11 10 10 8 8 9 8 9 8 8 7 7 5 4 4 3 4 2 5 6 7 6 8 8 8 6 8 8 6 6 8 8 8 8
14 12 9 10 9 8 11 11 11 10 8 9 9 9 10 10 10 10 11 11 10 8 10 10 10 9 9 10 10 11 11 12 9 9 7 7 8 8 8 8 9 8 8 7 7 5 4 3 3 4 5 7 10 8 9 9 7 6 7 7 8 8 8
13 12 13 13 13 12 12 12 10 9 9 9 9 9 10 10 9 10 11 11 10 9 10 9 10 9 9 9 8 9 9 9 9 9 8 8 9 8 8 7 7 7 6 6 6 6 7 6 6 5 6 5 5 5 2 4 5 6 7 8 8 8 8
14 14 13 12 12 11 10 10 11 11 10 10 11 11 12 12 9 10 10 11 10 11 10 9 10 10 10 9 9 10 9 10 9 10 9 10 10 10 9 7 7 7 7 6 5 6 6 6 6 5 5 6 7 6 5 4 6 6 6 8 8 8 8
14 14 13 12 13 12 10 12 12 12 12 14 13 13 12 12 10 9 10 10 9 10 10 9 10 10 11 10 10 10 11 9 8 10 10 10 9 9 7 8 7 7 7 6 6 6 6 6 5 6 5 3 4 6 2 5 3 5 4 6 7 7 7
13 13 13 11 12 13 12 12 12 11 12 12 13 11 11 12 12 9 10 11 9 10 10 10 8 9 11 10 10 11 10 9 10 10 9 10 10 9 8 8 8 7 7 6 6 6 6 7 6 6 6 5 2 1 3 4 3 8 6 4 7 7 7
13 12 11 10 10 13 13 13 12 12 12 10 10 10 12 12 12 11 10 11 10 9 10 10 10 8 10 11 10 10 10 8 10 11 10 10 10 10 9 7 7 8 7 7 6 6 6 6 6 6 6 6 6 4 0 3 3 6 5 4 4 8 9
14 13 13 15 15 13 13 13 12 12 10 10 10 10 12 12 11 11 11 11 11 10 9 10 10 9 9 10 10 11 11 9 9 11 9 10 9 9 8 8 8 7 6 6 5 6 6 6 6 6 7 7 7 6 4 5 6 7 7 8 7 7 8
14 15 13 14 14 11 12 12 11 10 12 13 11 10 11 13 12 12 11 11 11 11 10 9 10 9 9 9 10 11 10 10 10 8 9 9 9 8 8 7 7 7 7 6 7 7 7 7 7 6 6 6 7 7 6 6 6 7 6 6 5 5 4
14 13 12 12 12 12 13 13 14 14 12 11 11 11 12 13 13 12 11 11 11 12 11 10 10 9 9 9 9 10 10 10 10 10 9 9 8 9 9 9 8 8 7 8 7 7 6 6 7 6 6 6 5 6 6 5 3 3 4 8 6 4 6
15 15 14 13 13 14 14 14 14 13 14 13 13 12 12 13 13 13 11 11 11 11 12 10 10 10 9 9 10 10 10 11 11 11 9 8 8 9 9 10 9 8 8 7 7 6 6 6 6 6 6 6 5 6 6 5 5 4 1 6 7 5 9
14 14 14 14 13 13 13 13 14 13 12 12 13 13 13 14 14 13 13 12 12 12 12 12 10 10 10 10 10 11 11 12 12 10 9 10 9 9 10 10 9 9 8 7 7 6 6 6 5 6 5 6 6 5 5 5 5 3 1 2 4 5 6
13 13 15 15 15 14 13 13 14 12 13 14 14 14 15 13 12 13 13 13 12 12 12 12 11 10 11 11 11 9 11 12 12 11 10 11 11 9 9 10 9 9 8 8 7 7 7 6 6 6 6 7 7 6 5 5 4 5 2 1 4 5 6
13 14 15 14 15 15 14 13 13 14 14 13 13 14 14 13 13 13 13 13 13 12 13 13 12 12 12 12 12 11 11 12 13 12 12 12 12 9 9 9 9 8 6 7 7 7 6 7 7 8 7 6 6 6 4 4 4 2 6 1 2 6 6
14 14 15 14 16 16 15 14 13 14 14 12 13 13 13 14 13 13 14 13 13 13 13 13 13 13 13 13 12 13 12 12 12 12 13 12 11 11 10 9 8 9 8 8 7 6 6 7 8 7 7 5 5 5 4 4 5 5 3 6 3 5 4
14 16 16 14 16 16 16 15 13 14 14 13 14 13 13 13 14 14 14 15 15 14 14 13 13 13 13 12 13 12 12 12 11 12 12 12 11 11 11 11 9 8 8 9 7 7 7 7 7 7 7 6 6 5 3 5 6 5 6 7 5 3 3
16 17 17 16 17 17 16 16 15 13 14 15 14 14 14 14 14 16 16 15 14 14 13 13 14 14 13 12 12 12 12 12 11 11 11 12 12 11 10 10 9 9 9 9 8 8 8 8 7 7 7 6 6 4 4 4 4 5 7 7 8 4 2
15 15 16 16 15 15 15 15 15 14 14 15 15 15 15 15 14 15 16 14 15 15 15 14 13 13 13 14 13 13 13 13 12 11 10 11 11 10 9 9 9 10 10 9 9 9 8 7 8 7 7 7 5 5 4 6 6 6 6 6 4 5 5
15 15 15 16 16 17 16 15 15 14 13 15 15 15 16 16 15 14 15 14 14 14 14 14 14 14 14 14 13 13 13 13 12 11 10 10 10 10 9 9 9 9 10 9 9 8 9 9 6 6 6 6 6 6 7 6 7 7 6 6 6 5 3
12 14 15 15 17 17 17 16 15 14 14 14 13 15 16 16 15 15 14 14 15 14 14 15 13 14 14 15 14 14 14 13 13 12 10 10 10 9 9 9 9 9 9 11 13 11 10 10 8 8 6 6 7 8 7 7 7 7 7 7 6 3 5
13 13 14 15 16 16 16 16 15 15 15 15 15 15 15 15 16 16 16 15 14 14 14 13 16 21 18 14 14 13 12 13 13 12 11 10 9 9 9 8 8 14 14 15 14 15 15 14 13 10 9 7 8 8 8 8 8 7 7 7 7 7 7
14 15 15 14 14 16 16 15 15 16 16 16 16 15 15 16 16 16 17 16 16 15 14 14 21 20 21 22 16 14 13 12 12 12 12 11 11 9 7 8 7 11 13 13 13 16 14 15 14 14 13 12 11 11 9 9 8 8 8 7 6 7 8
15 15 15 15 15 14 14 15 15 16 16 16 15 14 16 17 17 16 15 16 16 15 15 18 20 20 22 23 20 15 13 12 12 12 12 12 10 9 9 8 7 7 8 10 9 10 12 14 15 14 13 13 13 12 12 11 9 6 6 7 7 8 8
16 15 14 15 15 14 15 15 16 16 17 16 15 16 17 17 17 17 16 17 17 17 15 19 20 22 23 23 23 19 13 13 13 12 12 12 11 10 9 9 8 7 7 14 10 9 8 7 9 13 14 13 11 11 9 7 7 9 8 8 8 7 8
17 16 15 15 14 15 15 16 16 15 15 16 16 16 16 18 17 17 16 17 17 17 17 17 21 23 24 24 24 21 14 14 13 13 13 12 11 11 11 10 9 8 6 9 9 10 9 9 8 8 8 7 7 6 8 10 9 9 8 8 8 9 7
18 17 17 16 15 16 16 15 16 15 15 16 17 17 17 17 17 17 17 17 16 16 15 19 22 23 24 25 24 21 14 13 13 13 13 12 12 12 12 11 11 10 10 10 9 12 11 10 9 8 8 7 7 6 6 5 5 5 5 4 6 5 4
11 15 16 16 16 17 16 16 16 15 15 15 15 15 15 16 17 18 18 17 16 16 15 19 22 23 24 24 24 17 14 14 13 13 13 12 12 11 11 11 10 10 11 11 13 18 15 12 11 10 9 7 6 5 4 1 2 5 4 5 6 6 4
13 12 12 14 17 17 17 16 15 14 15 16 16 16 16 16 16 17 18 17 18 17 15 16 23 24 24 26 20 16 14 13 13 14 14 12 12 12 11 11 11 11 11 11 15 19 19 17 11 11 10 9 7 6 6 2 5 9 10 11 12 10 8
14 13 13 13 14 15 15 14 16 15 16 16 16 17 16 15 16 16 18 19 19 18 17 16 23 23 25 26 24 18 14 13 13 13 12 12 11 11 13 18 15 13 13 12 18 19 20 17 13 12 11 10 9 8 5 4 5 5 8 10 10 10 9
18 20 15 14 13 13 14 13 13 13 15 15 16 15 15 15 15 16 17 19 22 21 16 12 19 22 25 27 24 16 14 13 13 13 12 12 11 11 11 15 20 16 15 15 21 20 21 17 13 13 12 11 10 10 10 9 9 8 6 6 4 6 4
10 16 19 19 17 17 16 14 13 14 14 14 15 14 14 15 16 15 15 17 16 17 15 9 16 22 25 27 28 18 14 14 15 15 13 12 12 10 11 11 15 19 19 19 20 21 20 19 14 12 11 12 12 13 10 9 8 9 8 8 7 5 6
3 5 11 14 15 11 8 11 12 13 13 13 13 14 16 15 15 15 14 15 15 16 13 12 15 23 25 27 29 23 15 17 15 14 13 13 12 13 12 11 10 17 20 21 22 22 22 20 17 13 13 13 14 11 11 8 9 10 8 7 6 5 6
5 4 5 7 11 14 15 14 10 10 10 9 7 5 7 11 13 15 14 15 15 16 13 17 14 21 25 28 28 28 18 17 16 14 14 13 13 12 13 12 11 16 22 23 22 22 23 21 19 12 14 15 12 15 13 9 9 8 7 7 6 6 6
8 8 11 8 6 10 8 9 11 8 8 7 11 15 18 14 13 15 14 13 13 14 10 12 19 19 23 27 29 27 25 18 19 16 16 15 15 13 11 12 12 21 24 24 23 24 23 22 17 12 16 15 16 18 13 8 8 8 7 7 7 7 7
6 7 11 12 10 12 12 9 8 5 4 6 7 11 12 12 10 12 15 13 13 10 8 10 14 22 22 27 27 27 22 21 22 16 14 13 13 13 13 12 13 23 23 24 24 22 21 19 14 16 18 18 18 15 10 9 8 8 8 8 8 8 8
Wind_Direction
192 192 191 194 176 178 182 182 170 181 182 184 184 187 184 178 179 180 179 173 178 180 175 180 183 180 173 181 182 192 185 169 175 178 185 182 188 209 206 223 237 216 162 171 151 169 160 176 233 262 237 201 186 189 191 197 203 197 205 190 184 183 183
185 172 185 186 179 179 180 184 178 178 184 187 185 186 188 185 181 182 183 181 179 180 180 182 182 180 180 178 182 184 187 184 181 180 173 190 195 201 183 219 220 224 206 208 175 156 137 164 226 209 221 250 239 217 201 203 207 199 194 184 185 182 184
185 171 173 188 186 181 183 185 186 181 184 186 190 189 190 191 185 182 184 188 184 181 179 182 182 183 185 182 182 185 183 185 191 181 183 189 196 199 194 189 197 202 207 231 205 179 186 171 177 203 204 181 200 231 206 207 210 207 198 180 182 183 186
186 175 171 191 188 187 190 187 189 189 184 188 191 196 195 193 189 186 186 188 188 179 180 179 186 185 186 184 181 184 182 181 189 191 191 184 186 193 195 186 199 192 193 190 205 194 175 184 174 204 201 199 198 215 232 215 207 195 191 182 185 186 189
182 183 184 190 194 194 194 189 187 183 190 191 193 197 200 196 189 189 187 187 189 186 183 182 184 184 182 179 179 181 186 182 181 185 185 185 185 192 198 194 197 195 194 195 198 188 191 205 178 196 192 203 232 238 234 206 228 197 192 191 196 185 185
184 188 189 189 196 196 193 188 185 190 186 192 198 198 201 198 190 188 188 188 188 191 187 182 184 180 178 178 178 184 184 182 178 179 181 187 184 188 200 201 194 195 203 204 191 193 194 190 177 187 224 182 197 213 224 166 211 220 185 199 195 198 176
186 187 191 192 193 198 191 193 191 190 191 196 194 199 195 196 197 192 190 189 182 186 189 187 184 180 177 177 178 183 188 187 179 181 184 183 185 191 185 190 200 200 208 195 199 191 181 170 189 195 209 211 185 196 177 190 201 180 240 207 200 194 192
185 187 193 196 192 194 196 193 193 192 196 198 197 195 187 196 197 190 192 190 182 182 187 189 184 178 176 175 178 183 186 184 184 182 186 182 187 189 189 190 196 203 204 203 188 203 185 182 169 175 172 220 283 71 169 198 195 207 204 202 192 197 196
187 187 193 198 202 196 197 194 193 194 199 196 196 190 195 194 196 192 190 193 186 181 186 190 189 178 176 174 178 179 185 185 182 184 187 186 191 189 189 186 185 205 204 205 201 207 201 190 186 177 173 177 198 244 179 204 223 242 213 191 205 201 198
188 187 191 200 203 199 194 196 195 196 192 192 193 192 194 196 195 194 191 191 190 185 182 190 190 183 177 175 177 180 186 187 182 187 183 187 192 186 186 187 192 197 208 209 213 211 210 197 186 177 173 177 175 182 183 212 226 221 236 202 183 213 195
189 193 196 202 204 201 196 196 195 191 195 195 190 190 192 195 197 195 192 191 191 190 186 185 190 184 178 181 180 182 185 183 185 184 186 185 187 184 187 191 194 203 206 204 213 211 206 202 189 182 177 175 164 181 188 193 240 215 230 212 182 175 167
191 195 201 202 203 203 201 197 196 198 194 189 192 189 190 194 196 198 195 192 190 193 190 187 187 187 180 182 183 183 183 183 185 187 188 184 187 183 189 193 194 201 200 202 201 198 198 189 194 193 194 175 176 175 181 183 227 264 192 193 206 173 150
191 195 198 201 201 204 202 201 199 194 194 191 193 191 191 194 196 197 197 193 192 192 192 190 185 188 183 185 183 185 186 183 187 189 190 191 187 190 188 192 192 193 194 193 199 197 197 197 190 187 188 188 187 179 157 162 189 242 252 190 176 148 149
193 194 198 201 204 207 206 204 202 199 189 192 190 191 196 197 196 197 196 196 194 193 193 191 188 187 188 188 188 188 186 187 188 191 188 192 193 187 188 192 193 197 189 193 200 199 199 200 196 195 191 182 191 187 164 160 166 209 344 14 109 130 147
198 197 199 199 203 204 205 204 203 196 193 193 189 192 196 197 195 195 198 200 197 195 194 193 189 187 191 190 191 190 190 190 190 188 186 190 191 188 186 191 197 196 192 194 201 204 198 199 191 186 189 176 185 200 187 159 176 142 168 358 68 97 143
200 203 201 201 203 204 205 205 201 198 196 193 193 193 193 194 194 194 199 201 200 198 194 193 190 190 193 193 192 194 192 191 190 188 190 191 189 184 182 192 197 193 192 200 208 208 189 189 182 184 187 176 181 195 197 173 133 137 144 158 165 143 159
201 203 206 204 204 205 205 206 201 201 198 194 193 194 192 192 192 194 199 202 203 200 196 194 191 193 193 192 194 196 193 193 193 191 192 190 190 190 190 185 192 189 191 198 202 196 194 176 172 177 182 196 180 189 195 179 169 138 166 139 223 176 180
200 204 207 205 206 204 206 206 204 202 197 196 194 192 192 192 193 195 199 204 203 201 198 194 193 195 194 193 194 194 195 194 193 193 192 191 190 190 192 194 188 179 176 184 188 187 183 183 182 173 183 186 184 190 177 176 178 143 143 161 180 221 178
203 205 204 205 205 204 205 206 204 202 199 198 195 194 191 192 195 198 202 204 204 204 198 194 195 195 194 193 192 193 194 195 195 194 192 192 193 192 192 193 189 184 179 177 185 182 178 183 178 178 179 180 180 178 169 154 150 150 152 170 164 173 200
206 206 205 205 204 205 208 207 206 204 201 199 196 195 195 195 197 199 201 202 204 203 200 196 195 194 194 193 192 191 193 194 196 199 196 193 194 194 190 190 192 194 195 187 176 182 182 178 176 181 176 176 176 163 159 153 154 150 159 160 183 177 171
203 207 208 205 204 206 205 203 205 206 203 203 200 197 197 198 198 199 199 202 204 201 200 200 199 196 194 192 190 193 191 192 195 199 198 195 193 192 189 186 189 190 190 190 183 182 176 178 170 172 179 167 159 157 160 156 151 155 159 167 177 181 180
208 209 209 210 208 206 203 201 202 204 203 205 203 201 200 199 197 198 202 203 202 200 201 202 201 196 193 191 189 190 191 191 193 194 194 195 194 188 184 184 185 185 185 183 181 178 181 170 165 174 190 163 160 159 158 157 157 161 163 161 186 164 161
209 210 211 212 213 208 202 200 200 203 205 205 204 202 200 199 199 199 202 204 201 201 203 205 202 194 188 189 188 188 187 191 192 192 189 189 192 189 186 183 185 181 180 178 178 176 174 173 174 174 174 167 163 161 164 161 167 170 169 173 179 168 174
214 213 211 214 215 211 204 200 199 203 207 207 205 202 200 200 201 203 204 202 201 202 204 205 197 186 187 184 184 187 186 188 191 192 192 188 189 188 186 182 180 179 175 176 175 174 174 176 176 175 170 171 169 165 165 170 178 171 174 182 180 173 181
213 213 210 209 210 211 208 202 201 203 206 209 208 203 203 202 203 204 205 205 204 204 206 204 187 184 184 184 183 184 184 185 188 193 193 192 186 181 179 179 181 173 175 175 171 174 175 175 170 167 160 163 170 172 173 171 172 177 174 176 183 190 179
212 213 212 210 208 208 208 206 204 203 205 207 207 206 204 202 205 205 205 205 207 207 210 200 185 183 184 183 183 179 187 183 185 193 192 190 185 179 175 174 175 174 173 167 160 162 156 154 149 145 142 142 146 149 149 159 176 179 170 176 183 193 188
211 212 209 207 207 209 209 209 206 204 205 204 207 208 206 205 205 205 205 207 208 209 210 197 185 184 184 183 181 180 184 184 185 189 190 188 185 181 179 175 170 170 164 163 161 158 152 145 143 138 141 145 144 136 136 136 141 161 171 177 177 195 214
212 212 208 205 206 208 209 210 208 206 205 205 206 206 207 206 206 205 206 208 210 209 212 195 185 183 184 182 181 180 182 183 186 189 189 186 184 183 181 176 172 168 166 169 169 161 151 151 148 151 151 155 155 157 148 143 146 148 139 143 163 173 169
252 219 208 207 206 207 209 207 207 206 206 209 209 209 210 208 207 207 207 208 209 211 213 190 185 184 182 181 177 183 183 185 185 187 189 184 180 180 178 171 169 166 170 172 171 161 155 150 151 155 159 158 155 151 149 125 144 132 138 143 139 143 151
234 252 245 220 209 209 207 207 208 203 207 209 208 208 208 206 207 207 207 208 209 212 213 190 186 183 180 178 174 188 184 184 185 187 190 182 178 176 175 171 170 169 171 175 168 163 157 153 157 162 162 165 162 150 156 73 80 103 112 110 111 113 122
243 239 231 233 229 218 209 206 206 202 206 206 210 210 207 209 208 208 207 208 207 209 211 195 187 181 178 177 180 186 185 182 185 186 186 183 179 177 178 172 172 171 173 174 166 165 163 159 165 167 165 161 160 159 166 149 115 74 85 101 108 113 113
199 223 227 231 235 238 229 210 207 205 207 209 212 209 208 209 209 209 209 209 209 209 211 191 189 179 178 179 183 185 182 183 184 188 184 184 180 176 179 176 175 172 174 168 167 168 169 170 170 170 169 163 169 175 182 168 150 141 139 119 108 110 97
203 204 218 221 221 219 225 219 210 207 208 210 210 210 211 210 210 213 211 211 211 209 205 184 190 186 179 181 185 183 181 181 188 186 184 180 177 181 177 176 177 169 167 163 169 171 176 177 172 172 164 174 175 190 182 171 166 155 160 158 161 163 158
225 209 223 222 215 215 238 257 233 212 210 209 203 210 210 212 211 213 212 213 213 210 202 186 189 189 183 182 186 180 186 189 185 178 183 180 183 179 178 177 174 169 162 167 173 176 179 184 177 172 177 181 192 180 155 163 169 161 159 160 160 165 162
209 213 210 244 258 224 209 209 229 250 231 207 190 215 268 250 229 214 212 210 212 211 195 186 177 193 187 185 187 187 184 191 181 177 177 186 184 185 180 171 171 170 168 173 177 179 183 185 181 174 187 183 164 150 169 169 162 162 161 161 160 170 175
205 211 238 222 204 252 251 230 225 208 222 213 194 196 205 209 225 232 221 212 212 209 187 186 178 183 193 188 190 192 187 180 173 176 180 185 188 182 174 174 168 169 175 176 179 182 182 184 177 182 173 163 161 167 164 164 162 162 164 170 170 183 190
217 221 219 225 223 208 212 208 201 213 270 259 223 202 207 211 208 229 233 223 214 204 179 182 187 185 186 194 193 194 188 175 172 184 184 185 179 177 176 174 166 174 180 180 181 180 178 175 181 172 165 166 164 163 164 164 169 171 170 169 180 188 195